date,time,SUV Intensity [MED/Hr],UV Index,Daily total [MED],Since Last [MED]
20/09/2022,00:00:50,0.000,0.0,0.0,0.0
20/09/2022,00:01:51,0.000,0.0,0.0,0.0
20/09/2022,00:02:50,0.000,0.0,0.0,0.0
20/09/2022,00:03:50,0.001,0.0,0.0,0.0
20/09/2022,00:04:51,0.001,0.0,0.0,0.0
20/09/2022,00:05:50,0.000,0.0,0.0,0.0
20/09/2022,00:06:50,0.001,0.0,0.0,0.0
20/09/2022,00:07:59,0.000,0.0,0.0,0.0
20/09/2022,00:08:50,0.000,0.0,0.0,0.0
20/09/2022,00:09:50,-0.001,0.0,0.0,0.0
20/09/2022,00:10:51,0.000,0.0,0.0,0.0
20/09/2022,00:11:58,-0.001,0.0,0.0,0.0
20/09/2022,00:12:51,0.000,0.0,0.0,0.0
20/09/2022,00:13:59,0.000,0.0,0.0,0.0
20/09/2022,00:14:59,-0.000,0.0,0.0,0.0
20/09/2022,00:15:51,0.000,0.0,0.0,0.0
20/09/2022,00:16:50,0.000,0.0,0.0,0.0
20/09/2022,00:17:50,0.000,0.0,0.0,0.0
20/09/2022,00:18:51,0.001,0.0,0.0,0.0
20/09/2022,00:19:50,0.000,0.0,0.0,0.0
20/09/2022,00:20:50,0.000,0.0,0.0,0.0
20/09/2022,00:21:50,-0.001,0.0,0.0,0.0
20/09/2022,00:22:50,0.001,0.0,0.0,0.0
20/09/2022,00:23:59,0.000,0.0,0.0,0.0
20/09/2022,00:24:51,0.001,0.0,0.0,0.0
20/09/2022,00:25:51,0.000,0.0,0.0,0.0
20/09/2022,00:26:50,0.000,0.0,0.0,0.0
20/09/2022,00:27:50,0.001,0.0,0.0,0.0
20/09/2022,00:28:51,0.001,0.0,0.0,0.0
20/09/2022,00:29:50,0.001,0.0,0.0,0.0
20/09/2022,00:30:51,0.001,0.0,0.0,0.0
20/09/2022,00:31:50,0.001,0.0,0.0,0.0
20/09/2022,00:32:51,0.001,0.0,0.0,0.0
20/09/2022,00:33:50,0.000,0.0,0.0,0.0
20/09/2022,00:34:50,0.000,0.0,0.0,0.0
20/09/2022,00:35:50,0.001,0.0,0.0,0.0
20/09/2022,00:36:59,0.001,0.0,0.0,0.0
20/09/2022,00:37:51,0.001,0.0,0.0,0.0
20/09/2022,00:38:51,0.001,0.0,0.0,0.0
20/09/2022,00:39:59,0.000,0.0,0.0,0.0
20/09/2022,00:40:51,0.001,0.0,0.0,0.0
20/09/2022,00:41:51,0.001,0.0,0.0,0.0
20/09/2022,00:42:50,0.001,0.0,0.0,0.0
20/09/2022,00:43:50,0.001,0.0,0.0,0.0
20/09/2022,00:44:51,0.001,0.0,0.0,0.0
20/09/2022,00:45:50,0.000,0.0,0.0,0.0
20/09/2022,00:46:50,0.001,0.0,0.0,0.0
20/09/2022,00:47:51,0.001,0.0,0.0,0.0
20/09/2022,00:48:50,0.001,0.0,0.0,0.0
20/09/2022,00:49:59,-0.001,0.0,0.0,0.0
20/09/2022,00:50:50,0.002,0.0,0.0,0.0
20/09/2022,00:51:50,0.001,0.0,0.0,0.0
20/09/2022,00:52:59,0.000,0.0,0.0,0.0
20/09/2022,00:53:59,0.001,0.0,0.0,0.0
20/09/2022,00:54:50,0.001,0.0,0.0,0.0
20/09/2022,00:55:51,0.001,0.0,0.0,0.0
20/09/2022,00:56:51,0.001,0.0,0.0,0.0
20/09/2022,00:57:51,0.000,0.0,0.0,0.0
20/09/2022,00:59:02,0.001,0.0,0.0,0.0
20/09/2022,01:00:51,0.001,0.0,0.0,0.0
20/09/2022,01:01:51,-0.000,0.0,0.0,0.0
20/09/2022,01:02:59,0.001,0.0,0.0,0.0
20/09/2022,01:03:50,0.001,0.0,0.0,0.0
20/09/2022,01:04:50,0.001,0.0,0.0,0.0
20/09/2022,01:05:51,0.002,0.0,0.0,0.0
20/09/2022,01:06:50,0.001,0.0,0.0,0.0
20/09/2022,01:07:50,0.001,0.0,0.0,0.0
20/09/2022,01:08:58,-0.000,0.0,0.0,0.0
20/09/2022,01:09:50,0.001,0.0,0.0,0.0
20/09/2022,01:10:51,0.001,0.0,0.0,0.0
20/09/2022,01:11:51,0.001,0.0,0.0,0.0
20/09/2022,01:12:51,0.001,0.0,0.0,0.0
20/09/2022,01:13:50,0.001,0.0,0.0,0.0
20/09/2022,01:14:58,0.001,0.0,0.0,0.0
20/09/2022,01:15:50,0.001,0.0,0.0,0.0
20/09/2022,01:16:51,0.000,0.0,0.0,0.0
20/09/2022,01:17:50,0.001,0.0,0.0,0.0
20/09/2022,01:18:51,0.000,0.0,0.0,0.0
20/09/2022,01:19:50,0.001,0.0,0.0,0.0
20/09/2022,01:20:51,0.002,0.0,0.0,0.0
20/09/2022,01:21:50,0.000,0.0,0.0,0.0
20/09/2022,01:22:50,-0.000,0.0,0.0,0.0
20/09/2022,01:23:50,0.001,0.0,0.0,0.0
20/09/2022,01:24:59,0.001,0.0,0.0,0.0
20/09/2022,01:25:51,0.001,0.0,0.0,0.0
20/09/2022,01:26:51,0.001,0.0,0.0,0.0
20/09/2022,01:27:59,0.002,0.0,0.0,0.0
20/09/2022,01:28:51,0.000,0.0,0.0,0.0
20/09/2022,01:29:51,0.001,0.0,0.0,0.0
20/09/2022,01:30:50,0.000,0.0,0.0,0.0
20/09/2022,01:31:50,0.001,0.0,0.0,0.0
20/09/2022,01:32:51,0.001,0.0,0.0,0.0
20/09/2022,01:33:50,0.002,0.0,0.0,0.0
20/09/2022,01:34:59,0.001,0.0,0.0,0.0
20/09/2022,01:35:50,0.001,0.0,0.0,0.0
20/09/2022,01:36:50,0.001,0.0,0.0,0.0
20/09/2022,01:37:58,0.001,0.0,0.0,0.0
20/09/2022,01:38:51,0.000,0.0,0.0,0.0
20/09/2022,01:39:51,0.000,0.0,0.0,0.0
20/09/2022,01:40:51,0.001,0.0,0.0,0.0
20/09/2022,01:41:50,0.002,0.0,0.0,0.0
20/09/2022,01:42:51,0.001,0.0,0.0,0.0
20/09/2022,01:43:51,0.000,0.0,0.0,0.0
20/09/2022,01:44:59,0.001,0.0,0.0,0.0
20/09/2022,01:45:53,0.002,0.0,0.0,0.0
20/09/2022,01:46:59,0.001,0.0,0.0,0.0
20/09/2022,01:47:51,0.001,0.0,0.0,0.0
20/09/2022,01:48:51,0.001,0.0,0.0,0.0
20/09/2022,01:49:50,0.001,0.0,0.0,0.0
20/09/2022,01:50:50,0.001,0.0,0.0,0.0
20/09/2022,01:51:51,0.000,0.0,0.0,0.0
20/09/2022,01:52:50,0.002,0.0,0.0,0.0
20/09/2022,01:53:50,0.000,0.0,0.0,0.0
20/09/2022,01:54:51,0.001,0.0,0.0,0.0
20/09/2022,01:55:50,0.001,0.0,0.0,0.0
20/09/2022,01:56:59,0.001,0.0,0.0,0.0
20/09/2022,01:57:50,0.001,0.0,0.0,0.0
20/09/2022,01:58:51,0.001,0.0,0.0,0.0
20/09/2022,01:59:50,0.000,0.0,0.0,0.0
20/09/2022,02:00:51,0.001,0.0,0.0,0.0
20/09/2022,02:01:50,0.002,0.0,0.0,0.0
20/09/2022,02:02:50,0.001,0.0,0.0,0.0
20/09/2022,02:03:51,0.002,0.0,0.0,0.0
20/09/2022,02:04:51,0.001,0.0,0.0,0.0
20/09/2022,02:05:50,0.000,0.0,0.0,0.0
20/09/2022,02:06:59,0.001,0.0,0.0,0.0
20/09/2022,02:07:50,0.001,0.0,0.0,0.0
20/09/2022,02:08:50,0.002,0.0,0.0,0.0
20/09/2022,02:09:51,0.001,0.0,0.0,0.0
20/09/2022,02:10:51,0.002,0.0,0.0,0.0
20/09/2022,02:11:50,0.001,0.0,0.0,0.0
20/09/2022,02:12:50,0.001,0.0,0.0,0.0
20/09/2022,02:13:59,0.002,0.0,0.0,0.0
20/09/2022,02:14:50,0.001,0.0,0.0,0.0
20/09/2022,02:15:50,0.001,0.0,0.0,0.0
20/09/2022,02:16:51,0.002,0.0,0.0,0.0
20/09/2022,02:17:51,0.001,0.0,0.0,0.0
20/09/2022,02:18:51,0.001,0.0,0.0,0.0
20/09/2022,02:19:58,0.001,0.0,0.0,0.0
20/09/2022,02:20:51,0.000,0.0,0.0,0.0
20/09/2022,02:21:51,0.001,0.0,0.0,0.0
20/09/2022,02:22:50,0.001,0.0,0.0,0.0
20/09/2022,02:23:50,0.001,0.0,0.0,0.0
20/09/2022,02:24:58,0.001,0.0,0.0,0.0
20/09/2022,02:25:59,0.000,0.0,0.0,0.0
20/09/2022,02:26:50,0.001,0.0,0.0,0.0
20/09/2022,02:27:50,0.001,0.0,0.0,0.0
20/09/2022,02:28:59,0.001,0.0,0.0,0.0
20/09/2022,02:29:51,0.001,0.0,0.0,0.0
20/09/2022,02:30:51,0.001,0.0,0.0,0.0
20/09/2022,02:31:51,0.001,0.0,0.0,0.0
20/09/2022,02:32:50,0.002,0.0,0.0,0.0
20/09/2022,02:33:51,0.002,0.0,0.0,0.0
20/09/2022,02:34:50,0.001,0.0,0.0,0.0
20/09/2022,02:35:59,0.002,0.0,0.0,0.0
20/09/2022,02:36:51,0.002,0.0,0.0,0.0
20/09/2022,02:37:51,0.001,0.0,0.0,0.0
20/09/2022,02:38:59,0.001,0.0,0.0,0.0
20/09/2022,02:39:51,0.001,0.0,0.0,0.0
20/09/2022,02:40:51,0.001,0.0,0.0,0.0
20/09/2022,02:41:50,0.001,0.0,0.0,0.0
20/09/2022,02:42:50,0.002,0.0,0.0,0.0
20/09/2022,02:43:51,0.001,0.0,0.0,0.0
20/09/2022,02:44:50,0.001,0.0,0.0,0.0
20/09/2022,02:45:50,0.000,0.0,0.0,0.0
20/09/2022,02:46:51,0.001,0.0,0.0,0.0
20/09/2022,02:47:50,0.001,0.0,0.0,0.0
20/09/2022,02:48:59,0.001,0.0,0.0,0.0
20/09/2022,02:49:42,0.002,0.0,0.0,0.0
20/09/2022,02:50:52,0.002,0.0,0.0,0.0
20/09/2022,02:51:58,0.001,0.0,0.0,0.0
20/09/2022,02:52:51,0.001,0.0,0.0,0.0
20/09/2022,02:53:51,0.001,0.0,0.0,0.0
20/09/2022,02:54:50,0.001,0.0,0.0,0.0
20/09/2022,02:55:50,0.001,0.0,0.0,0.0
20/09/2022,02:56:51,0.001,0.0,0.0,0.0
20/09/2022,02:57:50,0.001,0.0,0.0,0.0
20/09/2022,02:58:51,0.001,0.0,0.0,0.0
20/09/2022,02:59:50,0.001,0.0,0.0,0.0
20/09/2022,03:00:50,0.001,0.0,0.0,0.0
20/09/2022,03:01:59,0.001,0.0,0.0,0.0
20/09/2022,03:02:51,0.001,0.0,0.0,0.0
20/09/2022,03:03:51,0.002,0.0,0.0,0.0
20/09/2022,03:04:51,0.001,0.0,0.0,0.0
20/09/2022,03:05:51,0.001,0.0,0.0,0.0
20/09/2022,03:06:50,0.001,0.0,0.0,0.0
20/09/2022,03:07:51,0.002,0.0,0.0,0.0
20/09/2022,03:08:51,0.002,0.0,0.0,0.0
20/09/2022,03:09:51,0.003,0.0,0.0,0.0
20/09/2022,03:10:52,0.001,0.0,0.0,0.0
20/09/2022,03:11:50,0.000,0.0,0.0,0.0
20/09/2022,03:12:51,0.002,0.0,0.0,0.0
20/09/2022,03:13:59,0.001,0.0,0.0,0.0
20/09/2022,03:15:08,0.000,0.0,0.0,0.0
20/09/2022,03:16:51,0.001,0.0,0.0,0.0
20/09/2022,03:17:51,0.001,0.0,0.0,0.0
20/09/2022,03:18:51,0.002,0.0,0.0,0.0
20/09/2022,03:19:53,0.002,0.0,0.0,0.0
20/09/2022,03:20:51,0.002,0.0,0.0,0.0
20/09/2022,03:21:50,0.002,0.0,0.0,0.0
20/09/2022,03:22:51,0.001,0.0,0.0,0.0
20/09/2022,03:23:50,0.001,0.0,0.0,0.0
20/09/2022,03:24:50,0.000,0.0,0.0,0.0
20/09/2022,03:25:51,0.001,0.0,0.0,0.0
20/09/2022,03:26:59,0.001,0.0,0.0,0.0
20/09/2022,03:27:51,0.002,0.0,0.0,0.0
20/09/2022,03:28:50,0.002,0.0,0.0,0.0
20/09/2022,03:29:51,0.002,0.0,0.0,0.0
20/09/2022,03:30:51,0.002,0.0,0.0,0.0
20/09/2022,03:31:51,0.001,0.0,0.0,0.0
20/09/2022,03:32:51,0.002,0.0,0.0,0.0
20/09/2022,03:33:50,0.002,0.0,0.0,0.0
20/09/2022,03:34:51,0.002,0.0,0.0,0.0
20/09/2022,03:35:51,0.002,0.0,0.0,0.0
20/09/2022,03:36:59,0.002,0.0,0.0,0.0
20/09/2022,03:37:51,0.002,0.0,0.0,0.0
20/09/2022,03:38:59,0.002,0.0,0.0,0.0
20/09/2022,03:39:59,0.001,0.0,0.0,0.0
20/09/2022,03:40:51,0.001,0.0,0.0,0.0
20/09/2022,03:41:51,0.002,0.0,0.0,0.0
20/09/2022,03:42:50,0.002,0.0,0.0,0.0
20/09/2022,03:43:51,0.001,0.0,0.0,0.0
20/09/2022,03:44:51,0.001,0.0,0.0,0.0
20/09/2022,03:45:59,0.001,0.0,0.0,0.0
20/09/2022,03:46:50,0.001,0.0,0.0,0.0
20/09/2022,03:47:50,0.001,0.0,0.0,0.0
20/09/2022,03:48:51,0.002,0.0,0.0,0.0
20/09/2022,03:50:00,0.000,0.0,0.0,0.0
20/09/2022,03:50:51,0.002,0.0,0.0,0.0
20/09/2022,03:51:51,0.001,0.0,0.0,0.0
20/09/2022,03:52:59,0.002,0.0,0.0,0.0
20/09/2022,03:53:50,0.002,0.0,0.0,0.0
20/09/2022,03:54:50,0.001,0.0,0.0,0.0
20/09/2022,03:55:50,0.002,0.0,0.0,0.0
20/09/2022,03:56:51,0.002,0.0,0.0,0.0
20/09/2022,03:57:50,0.002,0.0,0.0,0.0
20/09/2022,03:58:51,0.002,0.0,0.0,0.0
20/09/2022,03:59:59,0.002,0.0,0.0,0.0
20/09/2022,04:00:51,0.002,0.0,0.0,0.0
20/09/2022,04:01:52,0.002,0.0,0.0,0.0
20/09/2022,04:02:51,0.001,0.0,0.0,0.0
20/09/2022,04:03:51,0.003,0.0,0.0,0.0
20/09/2022,04:04:50,0.003,0.0,0.0,0.0
20/09/2022,04:05:51,0.002,0.0,0.0,0.0
20/09/2022,04:06:51,0.002,0.0,0.0,0.0
20/09/2022,04:07:51,0.001,0.0,0.0,0.0
20/09/2022,04:08:50,0.002,0.0,0.0,0.0
20/09/2022,04:10:07,0.002,0.0,0.0,0.0
20/09/2022,04:11:51,0.002,0.0,0.0,0.0
20/09/2022,04:12:59,0.001,0.0,0.0,0.0
20/09/2022,04:13:50,0.001,0.0,0.0,0.0
20/09/2022,04:14:51,0.001,0.0,0.0,0.0
20/09/2022,04:15:51,0.002,0.0,0.0,0.0
20/09/2022,04:16:51,0.001,0.0,0.0,0.0
20/09/2022,04:17:50,0.003,0.0,0.0,0.0
20/09/2022,04:18:50,0.002,0.0,0.0,0.0
20/09/2022,04:19:51,0.002,0.0,0.0,0.0
20/09/2022,04:20:51,0.002,0.0,0.0,0.0
20/09/2022,04:21:51,0.002,0.0,0.0,0.0
20/09/2022,04:22:59,0.002,0.0,0.0,0.0
20/09/2022,04:23:51,0.001,0.0,0.0,0.0
20/09/2022,04:24:51,0.002,0.0,0.0,0.0
20/09/2022,04:25:59,0.002,0.0,0.0,0.0
20/09/2022,04:26:51,0.002,0.0,0.0,0.0
20/09/2022,04:27:51,0.003,0.0,0.0,0.0
20/09/2022,04:28:50,0.002,0.0,0.0,0.0
20/09/2022,04:29:51,0.002,0.0,0.0,0.0
20/09/2022,04:30:51,0.002,0.0,0.0,0.0
20/09/2022,04:31:51,0.002,0.0,0.0,0.0
20/09/2022,04:32:51,0.002,0.0,0.0,0.0
20/09/2022,04:33:51,0.002,0.0,0.0,0.0
20/09/2022,04:34:50,0.002,0.0,0.0,0.0
20/09/2022,04:35:59,0.002,0.0,0.0,0.0
20/09/2022,04:36:51,0.001,0.0,0.0,0.0
20/09/2022,04:37:50,0.002,0.0,0.0,0.0
20/09/2022,04:38:51,0.001,0.0,0.0,0.0
20/09/2022,04:39:51,0.002,0.0,0.0,0.0
20/09/2022,04:40:51,0.002,0.0,0.0,0.0
20/09/2022,04:41:51,0.002,0.0,0.0,0.0
20/09/2022,04:42:51,0.002,0.0,0.0,0.0
20/09/2022,04:43:51,0.002,0.0,0.0,0.0
20/09/2022,04:44:51,0.002,0.0,0.0,0.0
20/09/2022,04:45:59,0.001,0.0,0.0,0.0
20/09/2022,04:46:51,0.002,0.0,0.0,0.0
20/09/2022,04:47:51,0.002,0.0,0.0,0.0
20/09/2022,04:48:51,0.002,0.0,0.0,0.0
20/09/2022,04:49:51,0.001,0.0,0.0,0.0
20/09/2022,04:50:51,0.001,0.0,0.0,0.0
20/09/2022,04:51:50,0.001,0.0,0.0,0.0
20/09/2022,04:52:51,0.001,0.0,0.0,0.0
20/09/2022,04:53:51,0.002,0.0,0.0,0.0
20/09/2022,04:54:52,0.002,0.0,0.0,0.0
20/09/2022,04:55:51,0.003,0.0,0.0,0.0
20/09/2022,04:56:51,0.001,0.0,0.0,0.0
20/09/2022,04:57:59,0.002,0.0,0.0,0.0
20/09/2022,04:58:51,0.002,0.0,0.0,0.0
20/09/2022,04:59:51,0.002,0.0,0.0,0.0
20/09/2022,05:00:42,0.002,0.0,0.0,0.0
20/09/2022,05:01:52,0.001,0.0,0.0,0.0
20/09/2022,05:02:51,0.002,0.0,0.0,0.0
20/09/2022,05:03:51,0.002,0.0,0.0,0.0
20/09/2022,05:04:51,0.002,0.0,0.0,0.0
20/09/2022,05:05:50,0.002,0.0,0.0,0.0
20/09/2022,05:06:51,0.002,0.0,0.0,0.0
20/09/2022,05:07:51,0.003,0.0,0.0,0.0
20/09/2022,05:08:51,0.001,0.0,0.0,0.0
20/09/2022,05:09:51,0.001,0.0,0.0,0.0
20/09/2022,05:10:51,0.002,0.0,0.0,0.0
20/09/2022,05:11:59,0.002,0.0,0.0,0.0
20/09/2022,05:12:50,0.003,0.0,0.0,0.0
20/09/2022,05:13:51,0.002,0.0,0.0,0.0
20/09/2022,05:14:51,0.002,0.0,0.0,0.0
20/09/2022,05:15:51,0.002,0.0,0.0,0.0
20/09/2022,05:16:51,0.002,0.0,0.0,0.0
20/09/2022,05:17:51,0.002,0.0,0.0,0.0
20/09/2022,05:18:51,0.002,0.0,0.0,0.0
20/09/2022,05:19:51,0.002,0.0,0.0,0.0
20/09/2022,05:20:52,0.002,0.0,0.0,0.0
20/09/2022,05:21:51,0.002,0.0,0.0,0.0
20/09/2022,05:22:51,0.001,0.0,0.0,0.0
20/09/2022,05:23:51,0.001,0.0,0.0,0.0
20/09/2022,05:24:51,0.002,0.0,0.0,0.0
20/09/2022,05:25:52,0.001,0.0,0.0,0.0
20/09/2022,05:26:51,0.003,0.0,0.0,0.0
20/09/2022,05:27:51,0.002,0.0,0.0,0.0
20/09/2022,05:28:51,0.002,0.0,0.0,0.0
20/09/2022,05:29:51,0.002,0.0,0.0,0.0
20/09/2022,05:30:51,0.001,0.0,0.0,0.0
20/09/2022,05:31:51,0.003,0.0,0.0,0.0
20/09/2022,05:32:51,0.003,0.0,0.0,0.0
20/09/2022,05:33:51,0.002,0.0,0.0,0.0
20/09/2022,05:34:59,0.002,0.0,0.0,0.0
20/09/2022,05:35:51,0.003,0.0,0.0,0.0
20/09/2022,05:36:51,0.002,0.0,0.0,0.0
20/09/2022,05:38:06,0.003,0.0,0.0,0.0
20/09/2022,05:39:52,0.003,0.0,0.0,0.0
20/09/2022,05:40:51,0.003,0.0,0.0,0.0
20/09/2022,05:41:51,0.003,0.0,0.0,0.0
20/09/2022,05:42:51,0.003,0.0,0.0,0.0
20/09/2022,05:43:50,0.003,0.0,0.0,0.0
20/09/2022,05:44:51,0.003,0.0,0.0,0.0
20/09/2022,05:45:51,0.004,0.0,0.0,0.0
20/09/2022,05:46:59,0.004,0.0,0.0,0.0
20/09/2022,05:47:59,0.004,0.0,0.0,0.0
20/09/2022,05:48:51,0.004,0.0,0.0,0.0
20/09/2022,05:49:50,0.003,0.0,0.0,0.0
20/09/2022,05:50:51,0.005,0.0,0.0,0.0
20/09/2022,05:51:53,0.006,0.0,0.0,0.0
20/09/2022,05:52:51,0.005,0.0,0.0,0.0
20/09/2022,05:53:51,0.005,0.0,0.0,0.0
20/09/2022,05:54:51,0.006,0.0,0.0,0.0
20/09/2022,05:55:51,0.006,0.0,0.0,0.0
20/09/2022,05:57:00,0.006,0.0,0.0,0.0
20/09/2022,05:57:59,0.007,0.0,0.0,0.0
20/09/2022,05:58:50,0.007,0.0,0.0,0.0
20/09/2022,05:59:51,0.007,0.0,0.0,0.0
20/09/2022,06:00:51,0.007,0.0,0.001,0.001
20/09/2022,06:01:42,0.008,0.0,0.001,0.0
20/09/2022,06:02:52,0.008,0.0,0.001,0.0
20/09/2022,06:03:50,0.008,0.0,0.001,0.0
20/09/2022,06:04:51,0.009,0.0,0.001,0.0
20/09/2022,06:05:51,0.009,0.0,0.001,0.0
20/09/2022,06:06:51,0.009,0.0,0.001,0.0
20/09/2022,06:07:42,0.010,0.0,0.002,0.001
20/09/2022,06:08:51,0.010,0.0,0.002,0.0
20/09/2022,06:09:51,0.011,0.0,0.002,0.0
20/09/2022,06:10:51,0.012,0.0,0.002,0.0
20/09/2022,06:11:51,0.012,0.0,0.002,0.0
20/09/2022,06:12:51,0.013,0.0,0.003,0.001
20/09/2022,06:13:51,0.014,0.0,0.003,0.0
20/09/2022,06:14:51,0.014,0.0,0.003,0.0
20/09/2022,06:15:51,0.015,0.0,0.003,0.0
20/09/2022,06:16:51,0.015,0.0,0.003,0.0
20/09/2022,06:17:51,0.016,0.0,0.004,0.001
20/09/2022,06:18:51,0.017,0.0,0.004,0.0
20/09/2022,06:19:51,0.017,0.0,0.004,0.0
20/09/2022,06:20:51,0.018,0.0,0.005,0.001
20/09/2022,06:21:51,0.019,0.0,0.005,0.0
20/09/2022,06:22:51,0.020,0.0,0.005,0.0
20/09/2022,06:23:51,0.020,0.0,0.006,0.001
20/09/2022,06:24:51,0.022,0.0,0.006,0.0
20/09/2022,06:25:51,0.022,0.0,0.006,0.0
20/09/2022,06:26:51,0.023,0.0,0.007,0.001
20/09/2022,06:27:51,0.024,0.0,0.007,0.0
20/09/2022,06:28:51,0.025,0.0,0.007,0.0
20/09/2022,06:29:42,0.026,0.0,0.008,0.001
20/09/2022,06:30:52,0.027,0.0,0.008,0.0
20/09/2022,06:31:50,0.028,0.0,0.009,0.001
20/09/2022,06:32:51,0.028,0.0,0.009,0.0
20/09/2022,06:33:51,0.030,0.0,0.01,0.001
20/09/2022,06:34:51,0.030,0.0,0.01,0.0
20/09/2022,06:35:52,0.031,0.0,0.011,0.001
20/09/2022,06:36:51,0.032,0.0,0.011,0.0
20/09/2022,06:37:51,0.032,0.0,0.012,0.001
20/09/2022,06:38:51,0.033,0.0,0.012,0.0
20/09/2022,06:39:51,0.036,0.0,0.013,0.001
20/09/2022,06:40:51,0.037,0.0,0.013,0.0
20/09/2022,06:41:51,0.038,0.0,0.014,0.001
20/09/2022,06:42:51,0.040,0.0,0.015,0.001
20/09/2022,06:43:51,0.040,0.0,0.015,0.0
20/09/2022,06:44:51,0.041,0.0,0.016,0.001
20/09/2022,06:46:00,0.044,0.0,0.017,0.001
20/09/2022,06:46:51,0.044,0.0,0.017,0.0
20/09/2022,06:47:51,0.046,0.0,0.018,0.001
20/09/2022,06:48:51,0.047,0.0,0.019,0.001
20/09/2022,06:49:51,0.047,0.0,0.02,0.001
20/09/2022,06:50:59,0.049,0.0,0.021,0.001
20/09/2022,06:51:51,0.051,0.0,0.021,0.0
20/09/2022,06:52:51,0.051,0.0,0.022,0.001
20/09/2022,06:54:04,0.051,0.0,0.023,0.001
20/09/2022,06:55:52,0.054,0.0,0.025,0.002
20/09/2022,06:56:50,0.056,0.0,0.026,0.001
20/09/2022,06:57:51,0.057,0.0,0.027,0.001
20/09/2022,06:58:51,0.058,0.0,0.028,0.001
20/09/2022,06:59:51,0.059,0.0,0.029,0.001
20/09/2022,07:00:51,0.060,0.0,0.03,0.001
20/09/2022,07:01:51,0.062,0.0,0.031,0.001
20/09/2022,07:02:51,0.063,0.0,0.032,0.001
20/09/2022,07:03:51,0.064,0.0,0.033,0.001
20/09/2022,07:04:52,0.065,0.0,0.034,0.001
20/09/2022,07:05:51,0.066,0.0,0.035,0.001
20/09/2022,07:06:51,0.067,0.0,0.036,0.001
20/09/2022,07:07:52,0.068,0.0,0.037,0.001
20/09/2022,07:08:51,0.068,0.0,0.038,0.001
20/09/2022,07:09:51,0.069,0.0,0.039,0.001
20/09/2022,07:10:51,0.070,0.0,0.041,0.002
20/09/2022,07:11:51,0.071,0.0,0.042,0.001
20/09/2022,07:12:51,0.072,0.0,0.043,0.001
20/09/2022,07:13:59,0.073,0.0,0.044,0.001
20/09/2022,07:14:51,0.074,0.0,0.045,0.001
20/09/2022,07:15:51,0.075,0.0,0.047,0.002
20/09/2022,07:17:00,0.075,0.0,0.048,0.001
20/09/2022,07:17:51,0.077,0.0,0.049,0.001
20/09/2022,07:18:51,0.079,0.0,0.05,0.001
20/09/2022,07:19:51,0.082,0.0,0.052,0.002
20/09/2022,07:20:51,0.084,0.0,0.053,0.001
20/09/2022,07:21:51,0.085,0.0,0.055,0.002
20/09/2022,07:22:51,0.087,0.0,0.056,0.001
20/09/2022,07:23:51,0.091,0.0,0.057,0.001
20/09/2022,07:24:51,0.094,0.0,0.059,0.002
20/09/2022,07:26:03,0.096,0.0,0.061,0.002
20/09/2022,07:27:52,0.103,0.0,0.064,0.003
20/09/2022,07:28:51,0.106,0.0,0.066,0.002
20/09/2022,07:29:51,0.109,0.0,0.067,0.001
20/09/2022,07:30:51,0.112,0.0,0.069,0.002
20/09/2022,07:31:51,0.115,0.0,0.071,0.002
20/09/2022,07:32:51,0.116,0.0,0.073,0.002
20/09/2022,07:33:51,0.118,0.0,0.075,0.002
20/09/2022,07:34:51,0.121,0.0,0.077,0.002
20/09/2022,07:35:51,0.122,0.0,0.079,0.002
20/09/2022,07:36:51,0.125,0.0,0.081,0.002
20/09/2022,07:37:51,0.127,0.0,0.083,0.002
20/09/2022,07:38:51,0.130,0.0,0.085,0.002
20/09/2022,07:39:51,0.132,0.0,0.088,0.003
20/09/2022,07:40:51,0.133,0.0,0.09,0.002
20/09/2022,07:41:51,0.136,0.0,0.092,0.002
20/09/2022,07:42:51,0.139,0.0,0.094,0.002
20/09/2022,07:43:59,0.142,0.0,0.097,0.003
20/09/2022,07:44:51,0.146,0.0,0.099,0.002
20/09/2022,07:45:51,0.147,0.0,0.101,0.002
20/09/2022,07:47:00,0.149,0.0,0.104,0.003
20/09/2022,07:47:51,0.150,0.0,0.106,0.002
20/09/2022,07:48:51,0.152,0.0,0.109,0.003
20/09/2022,07:49:51,0.156,0.0,0.111,0.002
20/09/2022,07:50:51,0.161,0.0,0.114,0.003
20/09/2022,07:51:51,0.160,0.0,0.117,0.003
20/09/2022,07:52:51,0.163,0.0,0.119,0.002
20/09/2022,07:53:51,0.168,0.0,0.122,0.003
20/09/2022,07:54:51,0.171,0.0,0.125,0.003
20/09/2022,07:55:51,0.176,0.0,0.128,0.003
20/09/2022,07:56:51,0.180,0.0,0.131,0.003
20/09/2022,07:57:51,0.184,0.0,0.134,0.003
20/09/2022,07:58:51,0.189,0.0,0.137,0.003
20/09/2022,07:59:51,0.194,0.0,0.14,0.003
20/09/2022,08:00:51,0.206,0.0,0.143,0.003
20/09/2022,08:01:51,0.207,0.0,0.147,0.004
20/09/2022,08:02:52,0.215,0.0,0.151,0.004
20/09/2022,08:03:51,0.216,0.0,0.154,0.003
20/09/2022,08:04:52,0.222,1.0,0.158,0.004
20/09/2022,08:05:51,0.228,1.0,0.161,0.003
20/09/2022,08:07:00,0.235,1.0,0.166,0.005
20/09/2022,08:07:51,0.241,1.0,0.169,0.003
20/09/2022,08:08:51,0.251,1.0,0.174,0.005
20/09/2022,08:09:51,0.259,1.0,0.178,0.004
20/09/2022,08:10:51,0.268,1.0,0.182,0.004
20/09/2022,08:11:51,0.278,1.0,0.187,0.005
20/09/2022,08:12:51,0.286,1.0,0.191,0.004
20/09/2022,08:13:51,0.282,1.0,0.196,0.005
20/09/2022,08:14:52,0.294,1.0,0.201,0.005
20/09/2022,08:15:52,0.306,1.0,0.206,0.005
20/09/2022,08:16:51,0.301,1.0,0.211,0.005
20/09/2022,08:17:52,0.319,1.0,0.216,0.005
20/09/2022,08:18:51,0.325,1.0,0.222,0.006
20/09/2022,08:19:59,0.324,1.0,0.228,0.006
20/09/2022,08:20:51,0.329,1.0,0.232,0.004
20/09/2022,08:21:51,0.333,1.0,0.238,0.006
20/09/2022,08:22:51,0.335,1.0,0.243,0.005
20/09/2022,08:23:51,0.339,1.0,0.249,0.006
20/09/2022,08:24:51,0.328,1.0,0.255,0.006
20/09/2022,08:25:51,0.349,1.0,0.26,0.005
20/09/2022,08:26:51,0.352,1.0,0.266,0.006
20/09/2022,08:27:51,0.352,1.0,0.272,0.006
20/09/2022,08:28:51,0.343,1.0,0.278,0.006
20/09/2022,08:29:59,0.370,1.0,0.285,0.007
20/09/2022,08:30:52,0.368,1.0,0.29,0.005
20/09/2022,08:31:51,0.373,1.0,0.296,0.006
20/09/2022,08:33:00,0.378,1.0,0.303,0.007
20/09/2022,08:33:51,0.374,1.0,0.308,0.005
20/09/2022,08:34:51,0.388,1.0,0.315,0.007
20/09/2022,08:35:52,0.403,1.0,0.321,0.006
20/09/2022,08:36:52,0.406,1.0,0.328,0.007
20/09/2022,08:37:51,0.399,1.0,0.335,0.007
20/09/2022,08:38:51,0.413,1.0,0.341,0.006
20/09/2022,08:39:59,0.427,1.0,0.349,0.008
20/09/2022,08:40:52,0.424,1.0,0.356,0.007
20/09/2022,08:41:51,0.429,1.0,0.362,0.006
20/09/2022,08:42:51,0.465,1.0,0.37,0.008
20/09/2022,08:43:51,0.462,1.0,0.377,0.007
20/09/2022,08:45:08,0.491,1.0,0.388,0.011
20/09/2022,08:47:00,0.504,1.0,0.403,0.015
20/09/2022,08:47:51,0.486,1.0,0.41,0.007
20/09/2022,08:48:51,0.497,1.0,0.419,0.009
20/09/2022,08:49:59,0.512,1.0,0.428,0.009
20/09/2022,08:50:51,0.520,1.0,0.435,0.007
20/09/2022,08:51:52,0.533,1.0,0.444,0.009
20/09/2022,08:53:00,0.521,1.0,0.454,0.01
20/09/2022,08:53:50,0.551,1.0,0.462,0.008
20/09/2022,08:54:52,0.566,1.0,0.471,0.009
20/09/2022,08:55:51,0.570,1.0,0.481,0.01
20/09/2022,08:56:51,0.563,1.0,0.49,0.009
20/09/2022,08:57:51,0.525,1.0,0.499,0.009
20/09/2022,08:58:51,0.553,1.0,0.508,0.009
20/09/2022,08:59:51,0.519,1.0,0.518,0.01
20/09/2022,09:00:51,0.514,1.0,0.526,0.008
20/09/2022,09:01:51,0.512,1.0,0.535,0.009
20/09/2022,09:02:59,0.516,1.0,0.545,0.01
20/09/2022,09:03:51,0.540,1.0,0.552,0.007
20/09/2022,09:04:51,0.545,1.0,0.561,0.009
20/09/2022,09:05:51,0.539,1.0,0.57,0.009
20/09/2022,09:06:52,0.502,1.0,0.579,0.009
20/09/2022,09:07:51,0.521,1.0,0.588,0.009
20/09/2022,09:08:51,0.530,1.0,0.596,0.008
20/09/2022,09:09:51,0.522,1.0,0.605,0.009
20/09/2022,09:10:52,0.534,1.0,0.614,0.009
20/09/2022,09:11:52,0.532,1.0,0.623,0.009
20/09/2022,09:13:00,0.539,1.0,0.633,0.01
20/09/2022,09:13:51,0.540,1.0,0.641,0.008
20/09/2022,09:14:59,0.527,1.0,0.651,0.01
20/09/2022,09:15:59,0.510,1.0,0.66,0.009
20/09/2022,09:16:51,0.519,1.0,0.667,0.007
20/09/2022,09:17:51,0.534,1.0,0.676,0.009
20/09/2022,09:18:51,0.564,1.0,0.685,0.009
20/09/2022,09:19:51,0.580,1.0,0.694,0.009
20/09/2022,09:20:52,0.579,1.0,0.704,0.01
20/09/2022,09:21:52,0.597,1.0,0.714,0.01
20/09/2022,09:22:38,0.612,1.0,0.722,0.008
20/09/2022,09:23:52,0.634,1.0,0.735,0.013
20/09/2022,09:24:51,0.639,1.0,0.745,0.01
20/09/2022,09:25:59,0.609,1.0,0.757,0.012
20/09/2022,09:26:51,0.605,1.0,0.766,0.009
20/09/2022,09:27:51,0.599,1.0,0.776,0.01
20/09/2022,09:28:52,0.589,1.0,0.786,0.01
20/09/2022,09:29:51,0.573,1.0,0.796,0.01
20/09/2022,09:30:52,0.590,1.0,0.805,0.009
20/09/2022,09:32:00,0.590,1.0,0.817,0.012
20/09/2022,09:32:51,0.601,1.0,0.825,0.008
20/09/2022,09:33:51,0.603,1.0,0.835,0.01
20/09/2022,09:34:52,0.612,1.0,0.845,0.01
20/09/2022,09:35:51,0.614,1.0,0.856,0.011
20/09/2022,09:36:53,0.614,1.0,0.866,0.01
20/09/2022,09:37:51,0.619,1.0,0.876,0.01
20/09/2022,09:38:52,0.644,1.0,0.887,0.011
20/09/2022,09:39:51,0.666,2.0,0.897,0.01
20/09/2022,09:40:51,0.703,2.0,0.908,0.011
20/09/2022,09:41:51,0.715,2.0,0.921,0.013
20/09/2022,09:42:51,0.736,2.0,0.932,0.011
20/09/2022,09:43:51,0.749,2.0,0.945,0.013
20/09/2022,09:44:53,0.770,2.0,0.958,0.013
20/09/2022,09:45:51,0.789,2.0,0.971,0.013
20/09/2022,09:46:52,0.789,2.0,0.984,0.013
20/09/2022,09:47:51,0.811,2.0,0.997,0.013
20/09/2022,09:48:51,0.817,2.0,1.01,0.013
20/09/2022,09:49:52,0.832,2.0,1.024,0.014
20/09/2022,09:50:52,0.857,2.0,1.038,0.014
20/09/2022,09:51:51,0.836,2.0,1.052,0.014
20/09/2022,09:52:59,0.876,2.0,1.069,0.017
20/09/2022,09:53:51,0.878,2.0,1.081,0.012
20/09/2022,09:54:52,0.892,2.0,1.096,0.015
20/09/2022,09:55:51,0.885,2.0,1.11,0.014
20/09/2022,09:56:51,0.885,2.0,1.125,0.015
20/09/2022,09:57:52,0.888,2.0,1.14,0.015
20/09/2022,09:58:51,0.876,2.0,1.154,0.014
20/09/2022,09:59:51,0.895,2.0,1.169,0.015
20/09/2022,10:00:51,0.904,2.0,1.184,0.015
20/09/2022,10:01:51,0.902,2.0,1.199,0.015
20/09/2022,10:02:52,0.879,2.0,1.214,0.015
20/09/2022,10:03:51,0.896,2.0,1.229,0.015
20/09/2022,10:04:51,0.868,2.0,1.244,0.015
20/09/2022,10:05:51,0.887,2.0,1.258,0.014
20/09/2022,10:06:51,0.930,2.0,1.273,0.015
20/09/2022,10:07:51,0.942,2.0,1.289,0.016
20/09/2022,10:08:51,0.930,2.0,1.304,0.015
20/09/2022,10:09:51,0.933,2.0,1.32,0.016
20/09/2022,10:10:52,0.936,2.0,1.336,0.016
20/09/2022,10:11:51,0.944,2.0,1.352,0.016